Roosevelt Roads, PR

8:56 AM AST on June 21, 2018 (GMT -0400)
Roosevelt Roads Ns

Weather History for TJNR - September, 2017

Change the Weather History Date:

Wednesday, September 13, 2017

  Actual Average Record
Temperature  
Mean Temperature 84 °F -  
Max Temperature 89 °F 86 °F 125 °F (2003)
Min Temperature 78 °F 74 °F 46 °F (1997)
Cooling Degree Days 18    
Growing Degree Days 34 (Base 50)    
Moisture  
Dew Point 78 °F    
Average Humidity 84    
Maximum Humidity 97    
Minimum Humidity 70    
Precipitation  
Precipitation 0.15 in - - ()
Sea Level Pressure  
Sea Level Pressure 29.93 in    
Wind  
Wind Speed 6 mph (SSE)    
Max Wind Speed 13 mph    
Max Gust Speed -    
Visibility 9 miles    
Events Rain    
Averages and records for this station are not official NWS values.
T = Trace of Precipitation, MM = Missing Value Source: NWS Daily Summary

Daily Weather History Graph

Daily Weather History Graph

Search for Another Location

Airport or City:

Astronomy

Sep. 13, 2017 Rise Set
Actual Time 6:10 AM AST 6:26 PM AST
Civil Twilight 5:48 AM AST 6:48 PM AST
Nautical Twilight 5:22 AM AST 7:13 PM AST
Astronomical Twilight 4:57 AM AST 7:39 PM AST
Moon No Moon Rise 1:03 PM AST (9/13)
Length of Visible Light 12h 59m
Length of Day
12h 16m
Last Quarter, 46% of the Moon is Illuminated
Sep 13
Last Quarter
Sep 20
New
Sep 27
First Quarter
Oct 5
Full
Oct 12
Last Quarter

Hourly Weather History & Observations

Time (AST) Temp. Heat Index Dew Point Humidity Pressure Visibility Wind Dir Wind Speed Gust Speed Precip Events Conditions
12:33 AM 82.0 °F 90.2 °F 77.0 °F 85% 29.95 in 10.0 mi ESE 8.1 mph - N/A   Mostly Cloudy
12:53 AM 82.0 °F 90.2 °F 77.0 °F 85% 29.95 in 10.0 mi ESE 3.5 mph - N/A   Partly Cloudy
1:53 AM 79.0 °F - 75.9 °F 90% 29.94 in 10.0 mi Calm Calm - N/A   Clear
2:53 AM 78.1 °F - 75.9 °F 93% 29.92 in 10.0 mi Calm Calm - N/A   Scattered Clouds
3:53 AM 79.0 °F - 75.9 °F 90% 29.91 in 10.0 mi Calm Calm - N/A   Scattered Clouds
4:04 AM 79.0 °F - 75.9 °F 90% 29.91 in 10.0 mi Calm Calm - N/A   Mostly Cloudy
4:31 AM 80.1 °F 85.4 °F 75.9 °F 87% 29.91 in 10.0 mi Calm Calm - N/A   Scattered Clouds
4:53 AM 80.1 °F 85.8 °F 77.0 °F 90% 29.90 in 10.0 mi SE 6.9 mph - N/A   Clear
5:53 AM 80.1 °F 85.4 °F 75.9 °F 87% 29.92 in 10.0 mi ESE 3.5 mph - N/A   Clear
6:53 AM 80.1 °F 85.8 °F 77.0 °F 90% 29.93 in 9.0 mi South 4.6 mph - N/A   Clear
7:53 AM 82.9 °F 92.8 °F 78.1 °F 85% 29.95 in 9.0 mi ESE 8.1 mph - N/A   Scattered Clouds
8:53 AM 84.9 °F 96.6 °F 78.1 °F 80% 29.95 in 9.0 mi ESE 9.2 mph - N/A   Scattered Clouds
9:01 AM 84.0 °F 94.8 °F 78.1 °F 82% 29.95 in 9.0 mi ESE 9.2 mph - N/A   Mostly Cloudy
9:24 AM 84.9 °F 96.6 °F 78.1 °F 80% 29.95 in 9.0 mi ESE 9.2 mph - N/A   Mostly Cloudy
9:53 AM 87.1 °F 99.8 °F 78.1 °F 74% 29.96 in 9.0 mi SE 11.5 mph - N/A   Scattered Clouds
10:24 AM 86.0 °F 96.9 °F 77.0 °F 74% 29.96 in 9.0 mi SSE 12.7 mph - N/A   Mostly Cloudy
10:53 AM 88.0 °F 103.1 °F 79.0 °F 75% 29.96 in 9.0 mi SE 10.4 mph - N/A   Mostly Cloudy
11:16 AM 88.0 °F 101.3 °F 78.1 °F 72% 29.96 in 9.0 mi SSE 11.5 mph - N/A   Partly Cloudy
11:53 AM 89.1 °F 104.4 °F 79.0 °F 72% 29.95 in 9.0 mi SSE 12.7 mph - N/A   Clear
12:53 PM 89.1 °F 104.4 °F 79.0 °F 72% 29.93 in 8.0 mi South 11.5 mph - N/A   Clear
1:53 PM 89.1 °F 103.2 °F 78.1 °F 70% 29.91 in 9.0 mi South 12.7 mph - N/A   Clear
2:53 PM 88.0 °F 103.1 °F 79.0 °F 75% 29.89 in 9.0 mi SSE 11.5 mph - N/A   Partly Cloudy
3:53 PM 87.1 °F 99.8 °F 78.1 °F 74% 29.88 in 10.0 mi South 12.7 mph - N/A   Partly Cloudy
4:53 PM 87.8 °F 99.7 °F 77.0 °F 70% 29.89 in 10.0 mi South 11.5 mph - N/A   Partly Cloudy
5:53 PM 84.9 °F 96.6 °F 78.1 °F 80% 29.89 in 10.0 mi South 9.2 mph - N/A   Partly Cloudy
6:53 PM 82.9 °F 92.8 °F 78.1 °F 85% 29.91 in 8.0 mi SSW 10.4 mph - 0.00 in Rain Light Rain
7:53 PM 82.0 °F 91.0 °F 78.1 °F 88% 29.92 in 10.0 mi SW 5.8 mph - 0.00 in   Clear
8:53 PM 82.0 °F 91.0 °F 78.1 °F 88% 29.94 in 10.0 mi Calm Calm - N/A   Clear
9:43 PM 80.1 °F 86.4 °F 78.1 °F 94% 29.96 in 2.5 mi SW 10.4 mph - 0.09 in Rain Heavy Rain
9:51 PM 78.8 °F - 77.0 °F 94% 29.96 in 1.8 mi WSW 9.2 mph - 0.14 in Rain Light Rain
9:53 PM 79.0 °F - 77.0 °F 94% 29.96 in 2.0 mi WSW 9.2 mph - 0.15 in Rain Light Rain
10:00 PM 79.0 °F - 77.0 °F 94% 29.96 in 7.0 mi SW 6.9 mph - 0.00 in Rain Light Rain
10:53 PM 80.1 °F 86.4 °F 78.1 °F 94% 29.96 in 10.0 mi Calm Calm - 0.00 in   Mostly Cloudy
11:53 PM 79.0 °F - 78.1 °F 97% 29.95 in 10.0 mi Calm Calm - N/A   Partly Cloudy